Location: Newark
(31.5350°N, 35.0986°E)
Time: 07:15:23
(UTC+00:00)

Vanguard 1 - Pass Details

Date: 30 September 2019
Orbit: 653 x 3830 km, 34.2° (Epoch: 22 October)

Event Time Altitude Azimuth Distance (km) Brightness Sun altitude
Rises 18:25:22 0° 207° (SSW) 5,395 13.9 -38.1°
Reaches altitude 10° 18:28:42 10° 199° (SSW) 4,774 13.5 -38.8°
Enters shadow 18:33:33 25° 183° (S) 4,135 12.9 -39.7°
Maximum altitude 18:42:10 41° 135° (SE) 4,040 - -41.3°
Drops below altitude 10° 19:01:55 10° 75° (ENE) 6,913 - -45.0°
Exits shadow 19:07:14 - 70° (ENE) 7,845 14.4 -46.0°
Sets 19:07:57 0° 69° (ENE) 7,968 14.4 -46.1°
